[[{"header":{"parameterUnit":"m.s-1","parameterCategory":1,"la1":30.2991,"la2":30.254,"lo1":-89.0895,"lo2":-89.0444,"dy":0.0017,"dx":0.0017,"nx":28,"ny":28,"refTime":"2023-05-26T21:00:00:Z","depth":0,"parameterNumber":2,"parameterNumberName":"U-component_of_WINDS"},"data":[0,0,0,0,0,0,0,0,0,0,0,0,0,0,0,0,0,0,0,0,0,0,0,0,0,0,0,0,0,0,0,0,0,0,0,0,0,0,0,0,0,0,0,0,0,0,0,0,0,0,0,0,0,0,0,0,0,0,-2.219,-2.2191,0,-2.2275,-2.2276,-2.2277,-2.2277,-2.2276,-2.2275,-2.2274,-2.2362,-2.2365,-2.2369,0,0,0,0,0,0,0,0,0,0,0,0,0,-2.2026,-2.2029,-2.219,-2.2191,-2.2192,-2.2275,-2.2276,-2.2278,-2.2277,-2.2276,-2.2275,-2.2273,-2.2361,-2.2365,-2.2369,0,0,0,0,0,0,0,0,0,0,0,0,0,-2.2103,-2.203,-2.2189,-2.2202,-2.2204,-2.2275,-2.2276,-2.2278,-2.2278,-2.2276,-2.2274,-2.2273,-2.236,-2.2365,-2.237,-2.2435,0,0,-2.2385,-2.2387,0,0,0,0,0,0,0,0,-2.2099,-2.2109,-2.2199,-2.2201,-2.2203,-2.2264,-2.2251,-2.2331,-2.2278,-2.225,-2.2274,-2.2272,-2.2331,-2.2338,-2.2358,-2.2439,-2.2443,-2.2386,-2.2389,-2.2391,-2.2392,0,0,0,0,0,0,0,-2.2093,-2.2105,-2.2224,-2.22,-2.2203,-2.2203,-2.2212,-2.2266,-2.2299,-2.2252,-2.2252,-2.2262,-2.2332,-2.2353,-2.236,-2.2444,-2.2386,-2.239,-2.2393,-2.2395,-2.2584,-2.2586,0,0,0,0,0,0,-2.2085,-2.2101,-2.2221,-2.2226,-2.2146,-2.2207,-2.2217,-2.2246,-2.2298,-2.2304,-2.2263,-2.2262,-2.2345,-2.2354,-2.2363,-2.2444,-2.2391,-2.2396,-2.2399,-2.2582,-2.2584,-2.2587,0,0,0,0,0,0,-2.2082,-2.2096,-2.2217,-2.2164,-2.2179,-2.2212,-2.2244,-2.2249,-2.227,-2.2307,-2.2313,-2.2279,-2.2344,-2.2356,-2.2417,-2.2447,-2.2398,-2.2403,-2.258,-2.2583,-2.2586,-2.2606,0,0,0,0,0,0,-2.2077,-2.2095,-2.212,-2.2164,-2.2182,-2.227,-2.2246,-2.2252,-2.2279,-2.2277,-2.2323,-2.2329,-2.2344,-2.241,-2.2422,-2.2453,-2.2407,-2.2577,-2.2581,-2.2585,-2.2603,-2.2609,-2.2615,0,0,0,0,0,-2.2071,-2.2122,-2.2121,-2.2136,-2.2214,-2.2272,-2.2282,-2.2298,-2.2281,-2.2307,-2.233,-2.2328,-2.2441,-2.2416,-2.243,-2.2463,-2.2575,-2.258,-2.2584,-2.26,-2.2608,-2.2615,0,0,0,0,0,0,-2.2081,-2.2128,-2.2128,-2.2194,-2.2229,-2.2272,-2.2305,-2.2305,-2.2345,-2.2343,-2.236,-2.237,-2.2432,-2.2453,-2.2424,-2.253,-2.2507,-2.2514,-2.2514,-2.2522,-2.2527,-2.2522,-2.2411,0,0,0,0,0,-2.209,-2.2133,-2.2172,-2.2227,-2.2245,-2.2272,-2.2297,-2.2306,-2.2343,-2.2358,-2.2386,-2.2422,-2.2466,-2.2494,-2.2537,-2.2605,-2.2616,-2.2635,-2.2641,-2.2646,-2.2653,-2.2692,-2.2701,-2.2601,-2.2601,-2.2601,0,0,-2.2111,-2.2142,-2.2168,-2.223,-2.2258,-2.2303,-2.2284,-2.2331,-2.2365,-2.2365,-2.2425,-2.2447,-2.2488,-2.2554,-2.2584,-2.2573,-2.2682,-2.2651,-2.2655,-2.2659,-2.2697,-2.2707,-2.2715,-2.2604,-2.2603,-2.2603,0,0,-2.2172,-2.2199,-2.2249,-2.2277,-2.232,-2.2337,-2.2349,-2.2392,-2.2406,-2.2466,-2.2468,-2.2508,-2.2582,-2.2612,-2.2637,-2.2709,-2.2709,-2.2722,-2.2754,-2.2792,-2.28,-2.2808,-2.2835,-2.2844,-2.2729,-2.2729,-2.2729,0,-2.2193,-2.226,-2.2274,-2.2323,-2.235,-2.2352,-2.2402,-2.2429,-2.2483,-2.2502,-2.2489,-2.2584,-2.2612,-2.2685,-2.2703,-2.2722,-2.2737,-2.2718,-2.2798,-2.2805,-2.2812,-2.2839,-2.2849,-2.273,-2.273,-2.273,-2.273,0,-2.2284,-2.233,-2.2365,-2.2418,-2.2449,-2.2498,-2.252,-2.255,-2.2556,-2.2575,-2.2637,-2.267,-2.2719,-2.2737,-2.2743,-2.2811,-2.2804,-2.2794,-2.2772,-2.2823,-2.2848,-2.2858,-2.2732,-2.2732,-2.2731,-2.2731,0,0,-2.2355,-2.2415,-2.2427,-2.2452,-2.2498,-2.2535,-2.2584,-2.2632,-2.2658,-2.2695,-2.2738,-2.2801,-2.2793,-2.2821,-2.283,-2.2863,-2.292,-2.285,-2.2851,-2.2863,-2.2999,-2.3008,-2.3019,-2.2919,-2.2921,-2.2923,-2.2997,0,-2.2423,-2.251,-2.2525,-2.2602,-2.2646,-2.2647,-2.269,-2.2724,-2.2743,-2.2782,-2.2803,-2.2848,-2.2833,-2.285,-2.2883,-2.2906,-2.2948,-2.2901,-2.296,-2.2962,-2.2952,-2.3032,-2.3042,-2.311,-2.3006,-2.3008,-2.3009,0,-2.2514,-2.2553,-2.2635,-2.2677,-2.2696,-2.2734,-2.278,-2.2818,-2.2856,-2.2867,-2.2899,-2.2904,-2.2956,-2.2929,-2.3001,-2.2969,-2.2994,-2.3009,-2.3012,-2.302,-2.2991,-2.3045,-2.3132,-2.3143,-2.3025,-2.3023,-2.3022,0,-2.256,-2.2633,-2.2692,-2.2713,-2.2762,-2.2789,-2.2811,-2.2847,-2.2876,-2.2916,-2.2935,-2.298,-2.3005,-2.304,-2.3058,-2.3037,-2.313,-2.3104,-2.3142,-2.3141,-2.3163,-2.3162,-2.3258,-2.3175,-2.3175,-2.3175,-2.3175,0,-2.2635,-2.2686,-2.2714,-2.275,-2.2807,-2.2822,-2.2878,-2.2899,-2.2932,-2.2973,-2.2976,-2.3014,-2.3034,-2.3076,-2.3089,-2.3148,-2.3159,-2.317,-2.3174,-2.3172,-2.317,-2.319,-2.3186,-2.3178,-2.3177,-2.3176,-2.3176,0,-2.2697,-2.2718,-2.2783,-2.2824,-2.2835,-2.2876,-2.2911,-2.2947,-2.2965,-2.3017,-2.303,-2.3058,-2.3107,-2.3128,-2.3187,-2.3197,-2.3265,-2.3264,-2.3252,-2.3254,-2.3291,-2.3288,-2.3405,-2.3422,-2.3326,-2.3327,-2.3327,0,-2.2745,-2.2784,-2.283,-2.2858,-2.288,-2.2925,-2.2954,-2.297,-2.3,-2.3047,-2.3077,-2.3126,-2.3166,-2.3244,-2.3271,-2.3317,-2.3318,-2.3356,-2.3325,-2.3322,-2.3322,-2.332,-2.3325,-2.3362,-2.3363,-2.3364,-2.3365,0,-2.2829,-2.2837,-2.2879,-2.2925,-2.2959,-2.2996,-2.3032,-2.3054,-2.3076,-2.311,-2.316,-2.3191,-2.3252,-2.3302,-2.3349,-2.3372,-2.3373,-2.3373,-2.3385,-2.3384,-2.3377,-2.3384,-2.327,-2.3371,-2.3371,-2.337,-2.337,-2.337,-2.2887,-2.2922,-2.296,-2.3007,-2.3035,-2.3069,-2.3105,-2.3127,-2.3169,-2.3221,-2.3227,-2.3281,-2.3319,-2.3383,-2.3407,-2.345,-2.3441,-2.3457,-2.3462,-2.3466,-2.347,-2.3368,-2.3459,-2.3458,-2.3458,-2.3458,-2.3458,0,-2.2973,-2.2997,-2.304,-2.309,-2.3127,-2.3123,-2.3162,-2.3194,-2.3241,-2.3276,-2.3315,-2.3373,-2.3421,-2.3451,-2.3499,-2.3527,-2.3529,-2.354,-2.3539,-2.3545,-2.3474,-2.346,-2.3538,-2.3538,-2.3538,-2.3538,-2.3538,-2.3538,-2.3022,-2.3082,-2.3095,-2.3169,-2.3193,-2.3246,-2.3269,-2.33,-2.3328,-2.3393,-2.3432,-2.3451,-2.3484,-2.3535,-2.3578,-2.3586,-2.3604,-2.3616,-2.3624,-2.3558,-2.3549,-2.3542,-2.3529,-2.3619,-2.362,-2.3691,-2.3691,-2.3692]},{"header":{"parameterUnit":"m.s-1","parameterCategory":1,"la1":30.2991,"la2":30.254,"lo1":-89.0895,"lo2":-89.0444,"dy":0.0017,"dx":0.0017,"nx":28,"ny":28,"refTime":"2023-05-26T21:00:00:Z","depth":0,"parameterNumber":3,"parameterNumberName":"V-component_of_WINDS"},"data":[0,0,0,0,0,0,0,0,0,0,0,0,0,0,0,0,0,0,0,0,0,0,0,0,0,0,0,0,0,0,0,0,0,0,0,0,0,0,0,0,0,0,0,0,0,0,0,0,0,0,0,0,0,0,0,0,0,0,-2.7636,-2.7636,0,-2.7625,-2.7625,-2.7625,-2.7572,-2.7571,-2.757,-2.7569,-2.7558,-2.7559,-2.756,0,0,0,0,0,0,0,0,0,0,0,0,0,-2.7611,-2.7612,-2.7636,-2.7636,-2.7636,-2.7625,-2.7625,-2.7625,-2.7573,-2.7571,-2.7569,-2.7568,-2.7558,-2.7559,-2.756,0,0,0,0,0,0,0,0,0,0,0,0,0,-2.7613,-2.7612,-2.7636,-2.7608,-2.7606,-2.7625,-2.7625,-2.7625,-2.7573,-2.7571,-2.7569,-2.7567,-2.7558,-2.7559,-2.756,-2.7606,0,0,-2.7564,-2.7565,0,0,0,0,0,0,0,0,-2.7613,-2.7614,-2.7612,-2.761,-2.7607,-2.7598,-2.7613,-2.7619,-2.7573,-2.7585,-2.7569,-2.7566,-2.7573,-2.7573,-2.7575,-2.7606,-2.7605,-2.7565,-2.7565,-2.7566,-2.7566,0,0,0,0,0,0,0,-2.7613,-2.7614,-2.7632,-2.7612,-2.7609,-2.7596,-2.7595,-2.7614,-2.759,-2.7584,-2.758,-2.758,-2.7571,-2.7574,-2.7575,-2.7605,-2.7565,-2.7566,-2.7567,-2.7567,-2.7673,-2.7675,0,0,0,0,0,0,-2.7617,-2.7615,-2.7632,-2.7631,-2.7606,-2.7598,-2.7596,-2.7603,-2.759,-2.7586,-2.7581,-2.7577,-2.7573,-2.7573,-2.7574,-2.7628,-2.7566,-2.7567,-2.7568,-2.7671,-2.7674,-2.7676,0,0,0,0,0,0,-2.7616,-2.7619,-2.7632,-2.7622,-2.7623,-2.7601,-2.7609,-2.7604,-2.7606,-2.7587,-2.7583,-2.7588,-2.7571,-2.7572,-2.7599,-2.7627,-2.7568,-2.7569,-2.7669,-2.7672,-2.7675,-2.7735,0,0,0,0,0,0,-2.7616,-2.7619,-2.7636,-2.7623,-2.7623,-2.7657,-2.761,-2.7605,-2.7609,-2.7603,-2.7593,-2.7589,-2.757,-2.7597,-2.76,-2.7627,-2.757,-2.7666,-2.767,-2.7674,-2.773,-2.774,-2.7748,0,0,0,0,0,-2.7615,-2.7653,-2.7637,-2.764,-2.7644,-2.7659,-2.7659,-2.7636,-2.7611,-2.7629,-2.7616,-2.759,-2.7623,-2.76,-2.7603,-2.7631,-2.7665,-2.7669,-2.7674,-2.7727,-2.7738,-2.7747,0,0,0,0,0,0,-2.7671,-2.7651,-2.7633,-2.7668,-2.7666,-2.765,-2.7671,-2.7649,-2.7653,-2.7648,-2.7619,-2.7617,-2.7648,-2.7642,-2.7617,-2.7675,-2.7639,-2.7645,-2.7678,-2.7689,-2.7697,-2.7699,-2.7571,0,0,0,0,0,-2.7687,-2.7701,-2.7682,-2.7715,-2.7715,-2.7693,-2.7699,-2.7681,-2.7677,-2.7676,-2.7666,-2.7664,-2.7673,-2.7681,-2.7689,-2.7729,-2.7726,-2.775,-2.7758,-2.7765,-2.7771,-2.7793,-2.7803,-2.7691,-2.7691,-2.7691,0,0,-2.7721,-2.7712,-2.7722,-2.7726,-2.7722,-2.7737,-2.7693,-2.771,-2.7721,-2.7679,-2.7704,-2.7696,-2.7691,-2.7725,-2.774,-2.7721,-2.7801,-2.7771,-2.7777,-2.7779,-2.7798,-2.7809,-2.7818,-2.7694,-2.7694,-2.7693,0,0,-2.7791,-2.7785,-2.7812,-2.7809,-2.7803,-2.7788,-2.7795,-2.7783,-2.7776,-2.7801,-2.7769,-2.7782,-2.7799,-2.7798,-2.7799,-2.7868,-2.7844,-2.7871,-2.7917,-2.7938,-2.7947,-2.7955,-2.7981,-2.799,-2.7877,-2.7877,-2.7877,0,-2.7834,-2.7855,-2.7828,-2.7848,-2.7851,-2.7813,-2.784,-2.7839,-2.7836,-2.7839,-2.7818,-2.784,-2.7834,-2.7868,-2.7885,-2.7886,-2.7894,-2.7873,-2.7948,-2.7956,-2.7962,-2.7987,-2.7996,-2.788,-2.788,-2.7879,-2.7879,0,-2.7908,-2.7923,-2.7946,-2.7945,-2.795,-2.7973,-2.7951,-2.7959,-2.7941,-2.7929,-2.7954,-2.7946,-2.7952,-2.7958,-2.794,-2.7989,-2.7978,-2.7953,-2.7916,-2.7977,-2.7999,-2.8008,-2.7885,-2.7884,-2.7883,-2.7882,0,0,-2.8013,-2.7997,-2.8006,-2.8005,-2.7996,-2.8008,-2.803,-2.8035,-2.8044,-2.8043,-2.8061,-2.8077,-2.8054,-2.8055,-2.8037,-2.8056,-2.8113,-2.8028,-2.8028,-2.8045,-2.8167,-2.8187,-2.8198,-2.8096,-2.8098,-2.8099,-2.8168,0,-2.8081,-2.8117,-2.8094,-2.8135,-2.8149,-2.8113,-2.8132,-2.8129,-2.8118,-2.8128,-2.8116,-2.8128,-2.8096,-2.8097,-2.8114,-2.8102,-2.8137,-2.8097,-2.8114,-2.8114,-2.8117,-2.821,-2.8231,-2.8296,-2.8176,-2.8178,-2.8179,0,-2.8165,-2.8168,-2.821,-2.8199,-2.8204,-2.8222,-2.8225,-2.8236,-2.8231,-2.8222,-2.8224,-2.8201,-2.8222,-2.8185,-2.8214,-2.8188,-2.8193,-2.8188,-2.819,-2.8192,-2.8151,-2.8215,-2.8317,-2.8327,-2.8192,-2.8191,-2.819,0,-2.8239,-2.8254,-2.8281,-2.8281,-2.8269,-2.8282,-2.8277,-2.8271,-2.8276,-2.828,-2.8283,-2.8288,-2.8292,-2.8297,-2.8276,-2.8251,-2.8308,-2.8269,-2.8302,-2.8303,-2.8317,-2.8316,-2.8422,-2.8318,-2.8318,-2.8318,-2.8318,0,-2.8318,-2.8345,-2.8314,-2.8331,-2.8361,-2.8334,-2.8364,-2.8355,-2.835,-2.8365,-2.8334,-2.8349,-2.832,-2.8331,-2.8315,-2.8342,-2.8344,-2.8337,-2.8333,-2.8341,-2.8342,-2.8345,-2.8341,-2.832,-2.832,-2.8319,-2.8319,0,-2.8406,-2.8386,-2.8414,-2.84,-2.8397,-2.8419,-2.8407,-2.8422,-2.8409,-2.8428,-2.8431,-2.8411,-2.8423,-2.8403,-2.8412,-2.8401,-2.844,-2.8427,-2.8441,-2.8438,-2.8473,-2.847,-2.8585,-2.8599,-2.8485,-2.8486,-2.8487,0,-2.8458,-2.8479,-2.8467,-2.8474,-2.8471,-2.8484,-2.8489,-2.8463,-2.847,-2.8467,-2.8483,-2.8492,-2.8499,-2.852,-2.8506,-2.8514,-2.8503,-2.8542,-2.8504,-2.8511,-2.8505,-2.8504,-2.8507,-2.8551,-2.8552,-2.8553,-2.8554,0,-2.8554,-2.8543,-2.8551,-2.8557,-2.8564,-2.8567,-2.8567,-2.8575,-2.8548,-2.8557,-2.8569,-2.8574,-2.8584,-2.8595,-2.8599,-2.8594,-2.857,-2.8566,-2.8574,-2.8583,-2.8591,-2.8589,-2.8464,-2.8564,-2.8563,-2.8562,-2.8562,-2.8561,-2.8626,-2.8643,-2.8637,-2.8648,-2.8646,-2.8647,-2.8661,-2.8649,-2.8659,-2.8665,-2.8649,-2.8666,-2.8661,-2.8664,-2.8662,-2.8675,-2.8657,-2.8669,-2.8672,-2.8676,-2.8682,-2.8588,-2.8675,-2.8675,-2.8674,-2.8674,-2.8674,0,-2.8721,-2.8715,-2.8725,-2.8728,-2.8736,-2.8712,-2.8711,-2.872,-2.8735,-2.8733,-2.874,-2.8754,-2.8764,-2.8751,-2.8759,-2.8771,-2.8761,-2.8774,-2.8774,-2.8774,-2.8696,-2.8689,-2.8783,-2.8783,-2.8783,-2.8783,-2.8783,-2.8783,-2.8771,-2.8799,-2.8787,-2.8813,-2.8807,-2.8823,-2.8825,-2.8826,-2.8824,-2.8842,-2.885,-2.8841,-2.8835,-2.8842,-2.885,-2.8846,-2.8851,-2.8869,-2.8861,-2.8789,-2.8779,-2.8769,-2.8762,-2.887,-2.887,-2.8938,-2.8938,-2.8939]}]]